Regional Weather Roundup
Issued by NWS

Home | Current Version | Previous Version | Graphics & Text | Print | Product List | Glossary On
Versions: 1 2 3 4 5 6 7 8 9 10 11 12 13 14 15 16 17 18 19 20 21 22 23 24 25 26 27
000
ASUS43 KDMX 202307
RWRIA

WEATHER ROUNDUP FOR IOWA
NATIONAL WEATHER SERVICE DES MOINES IA
600 PM CDT SUN APR 20 2014

NOTE: "FAIR" INDICATES FEW OR NO CLOUDS BELOW 12,000 FEET WITH NO
SIGNIFICANT WEATHER AND/OR OBSTRUCTIONS TO VISIBILITY.

* - THESE STATIONS ARE NOT NWS STATIONS...THUS NOT UNDER NWS
QUALITY CONTROL.  THEY ALSO DO NOT REPORT WEATHER SUCH
AS PRECIPITATION OR FOG.

IAZ001>003-012>014-020>022-031>034-043>046-210000-
   NORTHWEST IOWA

CITY           SKY/WX    TMP DP  RH WIND       PRES   REMARKS
CARROLL *      SUNNY     82  48  30 SW16G24   29.89F HX  81
CHEROKEE *     CLOUDY    81  52  36 S5        29.87F HX  80
DENISON *      SUNNY     81  50  34 S13G22    29.88F HX  80
LE MARS *      MOSUNNY   82  52  34 S8G15     29.86S HX  81
ORANGE CITY *  PTSUNNY   81  46  30 SW9       29.87F HX  80
SHELDON *      MOSUNNY   77  54  44 S9        29.87F
SIOUX CITY     CLOUDY    82  49  31 S16       29.86R HX  81
SPENCER        PTSUNNY   76  56  49 SE5       29.90S
STORM LAKE *   MOSUNNY   79  52  38 S13       29.90S
$$

IAZ055>058-069>071-079>083-090>094-210000-
   SOUTHWEST IOWA

CITY           SKY/WX    TMP DP  RH WIND       PRES   REMARKS
ATLANTIC *     MOSUNNY   81  52  36 S13G21    29.90S HX  80
AUDUBON *      SUNNY     81  41  24 S8        29.92S
CLARINDA *     CLOUDY    79  54  41 S18G25    29.94S
COUNCIL BLFS * PTSUNNY   75  54  46 S15G33    29.92R
CRESTON *      SUNNY     77  54  44 S18G24    29.95S
HARLAN  *      SUNNY     81  52  36 S12G20    29.93S HX  80
LAMONI         PTSUNNY   77  51  40 S14       29.97F
RED OAK *      PTSUNNY   75  55  50 SW30G39   29.93R
SHENANDOAH *   PTSUNNY   73  55  53 S16G26    29.92S
$$

IAZ047>049-059>061-072>074-084-210000-
   CENTRAL IOWA

CITY           SKY/WX    TMP DP  RH WIND       PRES   REMARKS
AMES           PTSUNNY   80  53  39 S16G26    29.92F HX  80
ANKENY *       MOSUNNY   81  54  39 S13G20    29.93S HX  80
CHARITON *     SUNNY     77  50  38 S14G21    29.97F
DES MOINES     PTSUNNY   81  53  37 S18G24    29.94S HX  80
GRINNELL*      PTSUNNY   79  46  31 S17       29.97S
KNOXVILLE *    SUNNY     77  48  36 S15G22    29.96S
MARSHALLTOWN   PTSUNNY   78  53  41 S15       29.93F
NEWTON *       SUNNY     79  50  36 SW15G24   29.96S
PELLA *        CLOUDY    79  50  36 S12G21    29.98S
PERRY *          N/A     82  46  28 S20G25    29.90F HX  81
$$

IAZ004>006-015-016-023>025-035-036-210000-
   NORTH CENTRAL IOWA

CITY           SKY/WX    TMP DP  RH WIND       PRES   REMARKS
ALGONA *       MOSUNNY   73  59  60 E10       29.92F
CLARION *      SUNNY     73  61  64 E9        29.90F
ESTHERVILLE    MOSUNNY   75  55  49 S13       29.90F
FORT DODGE *   CLOUDY    81  54  39 SW13      29.90F HX  80
MASON CITY     PTSUNNY   67  57  70 E9        29.95F
FOREST CITY *  PTSUNNY   70  55  60 E8        29.93F
IOWA FALLS *   CLOUDY    77  54  44 S14       29.93F
$$

IAZ007>011-017>019-026>030-037>042-050>054-066-210000-
   NORTHEAST IOWA

CITY           SKY/WX    TMP DP  RH WIND       PRES   REMARKS
CEDAR RAPIDS   CLOUDY    80  47  31 S13       29.97F
CHARLES CITY * PTSUNNY   68  57  68 E10       29.95F
CLINTON *      PTSUNNY   79  43  27 SW13      30.06S
DECORAH *      PTSUNNY   61  59  94 NE3       29.97F
DUBUQUE        CLOUDY    75  46  35 SW9       30.00F
MONTICELLO *   SUNNY     77  48  36 S8G14     29.99S
OELWEIN *      PTSUNNY  N/A N/A N/A S10       29.97F
WATERLOO       CLOUDY    78  52  40 MISG      29.93F
$$

IAZ064-065-067-068-078-210000-
   EAST CENTRAL IOWA

CITY           SKY/WX    TMP DP  RH WIND       PRES   REMARKS
DAVENPORT      PTSUNNY   79  43  27 S12       30.02F
IOWA CITY      PTSUNNY   79  48  33 SW12G22   30.00S
MT. PLEASANT * PTSUNNY   81  41  24 SW10      30.00F
MUSCATINE *    MOSUNNY   81  46  30 S16       29.99F HX  80
QUAD CITIES    MOSUNNY   80  44  27 SW12      30.00S
$$

IAZ062-063-075>077-085>089-095>099-210000-
   SOUTHEAST IOWA

CITY           SKY/WX    TMP DP  RH WIND       PRES   REMARKS
BURLINGTON     MOSUNNY   79  48  33 S14G22    30.01S
FAIRFIELD *    SUNNY     79  46  31 SW14      30.00S
FORT MADISON * SUNNY     79  48  34 S9        30.02F
KEOKUK *       SUNNY     79  46  31 S14G20    30.01S
OSKALOOSA *      N/A     79  48  34 SW15      29.99S
CENTERVILLE *  SUNNY     75  50  41 S16       30.01S
OTTUMWA        CLOUDY    77  47  34 S16G22    29.99S
WASHINGTON *   SUNNY     79  48  34 SW10      30.00S
$$

ABBREVIATIONS USED IN REMARKS
   TC - TEMPERATURES IN CELSIUS
  WCI - WIND CHILL INDEX
   HX - HEAT INDEX
  VSB - VISIBILITY
$$




USA.gov is the U.S. government's official web portal to all federal, state and local government web resources and services.